NJE3N EHAM-EKVG

Flight info

Callsign NJE3N
Flight time 1h 45m
Altitude 38000
Route BERGI M90 LONAM DCT OSBON/M082F380 DCT ROBUR
Aircraft CL60/M-SBDE1E2E3FGHIJ1J4J5J7M3RWXYZ/LB1V1D1

Departure

Time 2026-05-07 13:39
Airport Amsterdam Airport Schiphol (EHAM)

Arrival

Time 2026-05-07 15:24
Airport Vágar Airport (EKVG)
Time Latitude Longitude Altitude Speed Heading
2026-05-07 13:11 52.31196 4.80450 -4 ft 0 kts 311°
2026-05-07 13:27 52.31187 4.80467 -4 ft 2 kts 311°
2026-05-07 13:27 52.31175 4.80479 -4 ft 2 kts 351°
2026-05-07 13:27 52.31160 4.80474 -4 ft 2 kts 33°
2026-05-07 13:28 52.31156 4.80469 -4 ft 0 kts 42°
2026-05-07 13:30 52.31157 4.80470 -5 ft 0 kts 42°
2026-05-07 13:31 52.31170 4.80489 -5 ft 4 kts 42°
2026-05-07 13:31 52.31201 4.80535 -5 ft 7 kts 43°
2026-05-07 13:31 52.31245 4.80539 -4 ft 2 kts 294°
2026-05-07 13:31 52.31246 4.80536 -4 ft 0 kts 291°
2026-05-07 13:32 52.31247 4.80532 -4 ft 2 kts 287°
2026-05-07 13:32 52.31244 4.80442 -5 ft 13 kts 265°
2026-05-07 13:32 52.31176 4.80322 -5 ft 15 kts 219°
2026-05-07 13:32 52.31084 4.80194 -4 ft 18 kts 220°
2026-05-07 13:33 52.30981 4.80045 -4 ft 21 kts 224°
2026-05-07 13:33 52.30863 4.79877 -4 ft 23 kts 221°
2026-05-07 13:33 52.30735 4.79696 -4 ft 25 kts 221°
2026-05-07 13:33 52.30596 4.79496 -4 ft 27 kts 221°
2026-05-07 13:34 52.30446 4.79283 -4 ft 29 kts 220°
2026-05-07 13:34 52.30179 4.78898 -5 ft 20 kts 221°
2026-05-07 13:34 52.30079 4.78755 -5 ft 15 kts 221°
2026-05-07 13:35 52.30032 4.78653 -5 ft 11 kts 275°
2026-05-07 13:35 52.30054 4.78598 -5 ft 2 kts 315°
2026-05-07 13:35 52.30060 4.78589 -5 ft 0 kts 314°
2026-05-07 13:37 52.30073 4.78568 -5 ft 7 kts 314°
2026-05-07 13:37 52.30116 4.78485 -5 ft 5 kts 319°
2026-05-07 13:37 52.30136 4.78492 -5 ft 0 kts 37°
2026-05-07 13:38 52.30137 4.78493 -5 ft 0 kts 37°
2026-05-07 13:39 52.30139 4.78496 -5 ft 7 kts 38°
2026-05-07 13:39 52.30442 4.78928 -4 ft 110 kts 41°
2026-05-07 13:39 52.31204 4.80000 276 ft 168 kts 40°
2026-05-07 13:39 52.32135 4.81288 1234 ft 187 kts 40°
2026-05-07 13:40 52.33172 4.82722 2301 ft 209 kts 39°
2026-05-07 13:40 52.34522 4.83825 3421 ft 231 kts 10°
2026-05-07 13:40 52.36195 4.84030 4512 ft 254 kts
2026-05-07 13:40 52.37990 4.84119 5570 ft 268 kts 359°
2026-05-07 13:41 52.39788 4.83320 6658 ft 275 kts 329°
2026-05-07 13:41 52.41316 4.81398 7729 ft 282 kts 321°
2026-05-07 13:41 52.42823 4.79350 8805 ft 284 kts 321°
2026-05-07 13:41 52.44336 4.77306 9860 ft 288 kts 321°
2026-05-07 13:42 52.45905 4.75188 10863 ft 296 kts 321°
2026-05-07 13:42 52.47544 4.72976 11651 ft 316 kts 321°
2026-05-07 13:42 52.49279 4.70631 12397 ft 334 kts 321°
2026-05-07 13:42 52.51120 4.68142 12946 ft 356 kts 321°
2026-05-07 13:43 52.53076 4.65496 13591 ft 369 kts 320°
2026-05-07 13:43 52.55069 4.62797 14556 ft 374 kts 320°
2026-05-07 13:43 52.57077 4.60074 15570 ft 376 kts 320°
2026-05-07 13:43 52.59130 4.57290 16501 ft 380 kts 320°
2026-05-07 13:44 52.61166 4.54524 17370 ft 385 kts 320°
2026-05-07 13:44 52.63222 4.51729 18223 ft 389 kts 320°
2026-05-07 13:44 52.65308 4.48891 19061 ft 393 kts 320°
2026-05-07 13:44 52.67447 4.45976 19848 ft 397 kts 320°
2026-05-07 13:45 52.69555 4.43101 20605 ft 401 kts 320°
2026-05-07 13:45 52.71718 4.40148 21338 ft 405 kts 320°
2026-05-07 13:45 52.73955 4.37269 22032 ft 410 kts 327°
2026-05-07 13:45 52.76536 4.35300 22715 ft 416 kts 343°
2026-05-07 13:46 52.79385 4.34169 23339 ft 421 kts 346°
2026-05-07 13:46 52.82247 4.33104 23955 ft 425 kts 346°
2026-05-07 13:46 52.85122 4.32026 24560 ft 429 kts 346°
2026-05-07 13:46 52.88049 4.30927 25153 ft 433 kts 346°
2026-05-07 13:47 52.91002 4.29818 25729 ft 437 kts 346°
2026-05-07 13:47 52.93959 4.28706 26288 ft 440 kts 346°
2026-05-07 13:47 52.96947 4.27581 26830 ft 443 kts 346°
2026-05-07 13:47 52.99958 4.26446 27348 ft 447 kts 346°
2026-05-07 13:48 53.02971 4.25309 27842 ft 450 kts 346°
2026-05-07 13:48 53.06066 4.24140 28335 ft 452 kts 346°
2026-05-07 13:48 53.09131 4.22981 28807 ft 455 kts 346°
2026-05-07 13:48 53.12233 4.21807 29269 ft 458 kts 346°
2026-05-07 13:49 53.15345 4.20628 29709 ft 460 kts 347°
2026-05-07 13:49 53.18447 4.19451 30230 ft 459 kts 347°
2026-05-07 13:49 53.21541 4.18276 30800 ft 457 kts 347°
2026-05-07 13:49 53.24628 4.17101 31379 ft 454 kts 347°
2026-05-07 13:50 53.27712 4.15927 31952 ft 452 kts 347°
2026-05-07 13:50 53.30754 4.14766 32508 ft 449 kts 347°
2026-05-07 13:50 53.33805 4.13601 33048 ft 447 kts 347°
2026-05-07 13:50 53.36784 4.12461 33560 ft 445 kts 347°
2026-05-07 13:51 53.39816 4.11299 34064 ft 443 kts 347°
2026-05-07 13:51 53.42776 4.10164 34527 ft 441 kts 348°
2026-05-07 13:51 53.45789 4.09006 34989 ft 440 kts 348°
2026-05-07 13:51 53.48766 4.07861 35440 ft 438 kts 348°
2026-05-07 13:52 53.51725 4.06721 35835 ft 437 kts 348°
2026-05-07 13:52 53.54723 4.05563 36161 ft 436 kts 348°
2026-05-07 13:52 53.57641 4.04435 36455 ft 435 kts 348°
2026-05-07 13:52 53.60611 4.03286 36741 ft 435 kts 348°
2026-05-07 13:53 53.63562 4.02141 36974 ft 435 kts 348°
2026-05-07 13:53 53.66476 4.01010 37136 ft 435 kts 348°
2026-05-07 13:53 53.69439 3.99858 37284 ft 436 kts 348°
2026-05-07 13:53 53.72393 3.98708 37418 ft 437 kts 348°
2026-05-07 13:54 53.75380 3.97543 37556 ft 438 kts 348°
2026-05-07 13:54 53.78328 3.96392 37689 ft 439 kts 347°
2026-05-07 13:54 53.81299 3.95207 37824 ft 440 kts 346°
2026-05-07 13:54 53.84216 3.93570 37961 ft 440 kts 338°
2026-05-07 13:55 53.86933 3.91306 38086 ft 441 kts 330°
2026-05-07 13:55 53.92264 3.86020 38139 ft 449 kts 330°
2026-05-07 13:56 53.97697 3.80611 38146 ft 456 kts 329°
2026-05-07 13:56 54.03199 3.75121 38143 ft 463 kts 329°
2026-05-07 13:57 54.08776 3.69542 38135 ft 467 kts 329°
2026-05-07 13:57 54.14282 3.64018 38138 ft 467 kts 329°
2026-05-07 13:58 54.19861 3.58405 38135 ft 466 kts 329°
2026-05-07 13:58 54.25412 3.52803 38136 ft 465 kts 329°
2026-05-07 13:59 54.30998 3.47149 38138 ft 465 kts 329°
2026-05-07 13:59 54.36561 3.41501 38137 ft 465 kts 329°
2026-05-07 14:00 54.42119 3.35839 38141 ft 465 kts 329°
2026-05-07 14:00 54.47642 3.30196 38136 ft 465 kts 328°
2026-05-07 14:01 54.53207 3.24493 38136 ft 465 kts 328°
2026-05-07 14:01 54.58736 3.18810 38136 ft 465 kts 328°
2026-05-07 14:02 54.64272 3.13101 38136 ft 464 kts 328°
2026-05-07 14:02 54.69812 3.07369 38136 ft 464 kts 328°
2026-05-07 14:03 54.75332 3.01639 38134 ft 464 kts 328°
2026-05-07 14:03 54.80869 2.95874 38133 ft 464 kts 328°
2026-05-07 14:04 54.86407 2.90090 38134 ft 464 kts 328°
2026-05-07 14:04 54.91890 2.84344 38134 ft 463 kts 328°
2026-05-07 14:05 54.97403 2.78548 38133 ft 463 kts 328°
2026-05-07 14:05 55.02915 2.72735 38133 ft 463 kts 328°
2026-05-07 14:06 55.08403 2.66927 38133 ft 463 kts 328°
2026-05-07 14:06 55.13920 2.61071 38133 ft 463 kts 328°
2026-05-07 14:07 55.19385 2.55250 38133 ft 463 kts 328°
2026-05-07 14:07 55.24897 2.49361 38136 ft 463 kts 328°
2026-05-07 14:08 55.30350 2.43515 38132 ft 462 kts 328°
2026-05-07 14:08 55.35860 2.37589 38130 ft 462 kts 328°
2026-05-07 14:09 55.41320 2.31697 38130 ft 462 kts 327°
2026-05-07 14:09 55.46789 2.25777 38137 ft 461 kts 327°
2026-05-07 14:10 55.52209 2.19889 38128 ft 461 kts 327°
2026-05-07 14:10 55.57670 2.13938 38127 ft 461 kts 327°
2026-05-07 14:11 55.63117 2.07983 38124 ft 461 kts 327°
2026-05-07 14:11 55.68554 2.02018 38121 ft 461 kts 327°
2026-05-07 14:12 55.73999 1.96025 38117 ft 460 kts 327°
2026-05-07 14:12 55.79435 1.90023 38108 ft 460 kts 326°
2026-05-07 14:13 55.84849 1.84025 38099 ft 460 kts 326°
2026-05-07 14:13 55.90264 1.78005 38088 ft 460 kts 326°
2026-05-07 14:14 55.95697 1.71945 38073 ft 460 kts 326°
2026-05-07 14:14 56.01107 1.65891 38074 ft 460 kts 326°
2026-05-07 14:15 56.06493 1.59843 38072 ft 460 kts 326°
2026-05-07 14:15 56.11917 1.53731 38069 ft 460 kts 326°
2026-05-07 14:16 56.17332 1.47610 38066 ft 460 kts 326°
2026-05-07 14:16 56.22714 1.41505 38064 ft 460 kts 326°
2026-05-07 14:17 56.28090 1.35388 38062 ft 459 kts 326°
2026-05-07 14:17 56.33485 1.29225 38060 ft 459 kts 325°
2026-05-07 14:18 56.38880 1.23043 38058 ft 459 kts 325°
2026-05-07 14:18 56.44243 1.16878 38056 ft 458 kts 325°
2026-05-07 14:19 56.49591 1.10708 38054 ft 458 kts 325°
2026-05-07 14:19 56.54970 1.04480 38055 ft 458 kts 325°
2026-05-07 14:20 56.60308 0.98280 38055 ft 458 kts 325°
2026-05-07 14:20 56.65663 0.92038 38052 ft 458 kts 325°
2026-05-07 14:21 56.71011 0.85783 38050 ft 458 kts 324°
2026-05-07 14:21 56.76357 0.79509 38045 ft 458 kts 324°
2026-05-07 14:22 56.81688 0.73232 38042 ft 458 kts 324°
2026-05-07 14:22 56.87013 0.66939 38041 ft 457 kts 324°
2026-05-07 14:23 56.92321 0.60645 38040 ft 457 kts 324°
2026-05-07 14:23 56.97661 0.54292 38039 ft 457 kts 324°
2026-05-07 14:24 57.02991 0.47928 38038 ft 457 kts 324°
2026-05-07 14:24 57.08286 0.41584 38037 ft 457 kts 324°
2026-05-07 14:25 57.13589 0.35208 38035 ft 456 kts 324°
2026-05-07 14:25 57.18872 0.28834 38035 ft 456 kts 323°
2026-05-07 14:26 57.24188 0.22397 38027 ft 456 kts 323°
2026-05-07 14:26 57.29470 0.15979 38032 ft 455 kts 323°
2026-05-07 14:27 57.34728 0.09570 38030 ft 455 kts 323°
2026-05-07 14:27 57.39996 0.03124 38026 ft 454 kts 322°
2026-05-07 14:28 57.45238 -0.03312 38016 ft 454 kts 322°
2026-05-07 14:28 57.50476 -0.09765 38022 ft 454 kts 322°
2026-05-07 14:29 57.55751 -0.16289 38030 ft 455 kts 322°
2026-05-07 14:29 57.60985 -0.22785 38021 ft 457 kts 322°
2026-05-07 14:30 57.66295 -0.29398 38015 ft 459 kts 322°
2026-05-07 14:30 57.71584 -0.36009 38014 ft 460 kts 322°
2026-05-07 14:31 57.76895 -0.42669 38008 ft 460 kts 322°
2026-05-07 14:31 57.82186 -0.49329 38011 ft 460 kts 322°
2026-05-07 14:32 57.87489 -0.56029 38010 ft 460 kts 322°
2026-05-07 14:32 57.92755 -0.62708 38016 ft 460 kts 322°
2026-05-07 14:33 57.98077 -0.69481 38003 ft 460 kts 321°
2026-05-07 14:33 58.03333 -0.76195 38006 ft 459 kts 321°
2026-05-07 14:34 58.08597 -0.82944 37997 ft 458 kts 321°
2026-05-07 14:34 58.13858 -0.89712 38004 ft 457 kts 320°
2026-05-07 14:35 58.19072 -0.96445 38014 ft 457 kts 320°
2026-05-07 14:35 58.24324 -1.03253 38004 ft 458 kts 320°
2026-05-07 14:36 58.29582 -1.10093 38002 ft 457 kts 320°
2026-05-07 14:36 58.34788 -1.16890 38000 ft 457 kts 320°
2026-05-07 14:37 58.39990 -1.23706 37998 ft 457 kts 320°
2026-05-07 14:37 58.47830 -1.34029 37991 ft 457 kts 320°
2026-05-07 14:38 58.53026 -1.40902 37968 ft 457 kts 320°
2026-05-07 14:38 58.58253 -1.47840 37942 ft 457 kts 320°
2026-05-07 14:39 58.63466 -1.54786 37934 ft 457 kts 320°
2026-05-07 14:39 58.68652 -1.61723 37931 ft 456 kts 320°
2026-05-07 14:40 58.73836 -1.68681 37924 ft 456 kts 319°
2026-05-07 14:40 58.79043 -1.75706 37906 ft 457 kts 319°
2026-05-07 14:41 58.84214 -1.82685 37907 ft 456 kts 319°
2026-05-07 14:41 58.89381 -1.89698 37906 ft 455 kts 319°
2026-05-07 14:42 58.94563 -1.96766 37906 ft 455 kts 319°
2026-05-07 14:42 58.99700 -2.03789 37901 ft 455 kts 319°
2026-05-07 14:43 59.04876 -2.10894 37902 ft 455 kts 319°
2026-05-07 14:43 59.10021 -2.17998 37905 ft 456 kts 319°
2026-05-07 14:44 59.15171 -2.25119 37902 ft 456 kts 319°
2026-05-07 14:44 59.20339 -2.32295 37895 ft 457 kts 319°
2026-05-07 14:45 59.25509 -2.39496 37901 ft 457 kts 319°
2026-05-07 14:45 59.30674 -2.46712 37899 ft 457 kts 319°
2026-05-07 14:46 59.35821 -2.53938 37901 ft 457 kts 319°
2026-05-07 14:46 59.40999 -2.61238 37900 ft 457 kts 319°
2026-05-07 14:47 59.46138 -2.68515 37900 ft 457 kts 318°
2026-05-07 14:47 59.51265 -2.75800 37903 ft 457 kts 318°
2026-05-07 14:48 59.56415 -2.83135 37905 ft 457 kts 318°
2026-05-07 14:48 59.61550 -2.90489 37904 ft 457 kts 318°
2026-05-07 14:49 59.66694 -2.97887 37905 ft 458 kts 318°
2026-05-07 14:49 59.71829 -3.05308 37904 ft 458 kts 318°
2026-05-07 14:50 59.76979 -3.12766 37904 ft 458 kts 318°
2026-05-07 14:50 59.82084 -3.20178 37904 ft 459 kts 318°
2026-05-07 14:51 59.87233 -3.27674 37901 ft 459 kts 318°
2026-05-07 14:51 59.92364 -3.35181 37905 ft 459 kts 318°
2026-05-07 14:52 59.97528 -3.42774 37896 ft 460 kts 318°
2026-05-07 14:52 60.02683 -3.50381 37883 ft 460 kts 318°
2026-05-07 14:53 60.07793 -3.57965 37883 ft 460 kts 318°
2026-05-07 14:53 60.12973 -3.65673 37891 ft 461 kts 317°
2026-05-07 14:54 60.18119 -3.73375 37891 ft 462 kts 317°
2026-05-07 14:54 60.23265 -3.81109 37886 ft 462 kts 317°
2026-05-07 14:55 60.28384 -3.88859 37885 ft 463 kts 317°
2026-05-07 14:55 60.33514 -3.96629 37883 ft 463 kts 317°
2026-05-07 14:56 60.38658 -4.04476 37880 ft 463 kts 318°
2026-05-07 14:56 60.43775 -4.12265 37882 ft 463 kts 317°
2026-05-07 14:57 60.48915 -4.20125 37824 ft 464 kts 318°
2026-05-07 14:57 60.51460 -4.24023 37422 ft 463 kts 318°
2026-05-07 14:57 60.54002 -4.27924 36930 ft 459 kts 317°
2026-05-07 14:58 60.56530 -4.31821 36375 ft 457 kts 317°
2026-05-07 14:58 60.59044 -4.35705 35796 ft 456 kts 317°
2026-05-07 14:58 60.61561 -4.39600 35223 ft 453 kts 317°
2026-05-07 14:58 60.64067 -4.43485 34661 ft 451 kts 316°
2026-05-07 14:59 60.66513 -4.47286 34120 ft 449 kts 316°
2026-05-07 14:59 60.68977 -4.51122 33547 ft 446 kts 315°
2026-05-07 14:59 60.71453 -4.54983 32954 ft 444 kts 314°
2026-05-07 14:59 60.73855 -4.58737 32320 ft 441 kts 314°
2026-05-07 15:00 60.76266 -4.62511 31573 ft 436 kts 314°
2026-05-07 15:00 60.78652 -4.66252 30907 ft 430 kts 313°
2026-05-07 15:00 60.81021 -4.69978 30322 ft 431 kts 313°
2026-05-07 15:00 60.83383 -4.73706 29748 ft 433 kts 313°
2026-05-07 15:01 60.85791 -4.77513 29163 ft 435 kts 313°
2026-05-07 15:01 60.88181 -4.81297 28587 ft 435 kts 313°
2026-05-07 15:01 60.90543 -4.85039 28016 ft 433 kts 313°
2026-05-07 15:01 60.92921 -4.88813 27440 ft 429 kts 314°
2026-05-07 15:02 60.95252 -4.92519 26859 ft 426 kts 314°
2026-05-07 15:02 60.97590 -4.96244 26277 ft 423 kts 314°
2026-05-07 15:02 60.99878 -4.99914 25700 ft 419 kts 313°
2026-05-07 15:02 61.02097 -5.03659 25159 ft 414 kts 312°
2026-05-07 15:03 61.04314 -5.07470 24810 ft 410 kts 312°
2026-05-07 15:03 61.06488 -5.11218 24579 ft 413 kts 312°
2026-05-07 15:03 61.08707 -5.15051 24188 ft 415 kts 313°
2026-05-07 15:03 61.10879 -5.18803 23860 ft 412 kts 313°
2026-05-07 15:04 61.13078 -5.22611 23462 ft 413 kts 313°
2026-05-07 15:04 61.15287 -5.26440 23098 ft 410 kts 313°
2026-05-07 15:04 61.17445 -5.30188 22737 ft 408 kts 313°
2026-05-07 15:04 61.19609 -5.33952 22374 ft 406 kts 313°
2026-05-07 15:05 61.21742 -5.37670 22021 ft 404 kts 313°
2026-05-07 15:05 61.23880 -5.41404 21667 ft 402 kts 313°
2026-05-07 15:05 61.26014 -5.45138 21312 ft 400 kts 314°
2026-05-07 15:05 61.28133 -5.48851 20961 ft 399 kts 314°
2026-05-07 15:06 61.30241 -5.52553 20583 ft 397 kts 314°
2026-05-07 15:06 61.32344 -5.56252 20240 ft 395 kts 314°
2026-05-07 15:06 61.34436 -5.59937 19892 ft 393 kts 314°
2026-05-07 15:06 61.36525 -5.63627 19543 ft 392 kts 314°
2026-05-07 15:07 61.38597 -5.67290 19197 ft 390 kts 314°
2026-05-07 15:07 61.40492 -5.71193 18835 ft 382 kts 304°
2026-05-07 15:07 61.42132 -5.75587 18472 ft 384 kts 302°
2026-05-07 15:07 61.43808 -5.80121 18139 ft 409 kts 303°
2026-05-07 15:08 61.45569 -5.84873 17751 ft 426 kts 303°
2026-05-07 15:08 61.47397 -5.89790 17173 ft 427 kts 303°
2026-05-07 15:08 61.49201 -5.94637 16642 ft 421 kts 304°
2026-05-07 15:08 61.50979 -5.99421 16261 ft 421 kts 304°
2026-05-07 15:09 61.52781 -6.04281 15882 ft 421 kts 304°
2026-05-07 15:09 61.54572 -6.09118 15512 ft 421 kts 304°
2026-05-07 15:09 61.56376 -6.14000 15137 ft 421 kts 304°
2026-05-07 15:09 61.58165 -6.18845 14774 ft 420 kts 304°
2026-05-07 15:10 61.59939 -6.23663 14386 ft 421 kts 304°
2026-05-07 15:10 61.61730 -6.28540 14021 ft 419 kts 304°
2026-05-07 15:10 61.63485 -6.33320 13644 ft 419 kts 304°
2026-05-07 15:10 61.65278 -6.38210 13274 ft 418 kts 304°
2026-05-07 15:11 61.67047 -6.43043 12900 ft 418 kts 304°
2026-05-07 15:11 61.68800 -6.47849 12538 ft 416 kts 304°
2026-05-07 15:11 61.70560 -6.52680 12166 ft 415 kts 304°
2026-05-07 15:11 61.72297 -6.57459 11814 ft 414 kts 304°
2026-05-07 15:12 61.74059 -6.62314 11427 ft 413 kts 304°
2026-05-07 15:12 61.75778 -6.67053 11079 ft 402 kts 303°
2026-05-07 15:12 61.77434 -6.71616 10728 ft 380 kts 303°
2026-05-07 15:12 61.78987 -6.75905 10413 ft 361 kts 303°
2026-05-07 15:13 61.80466 -6.79998 10090 ft 345 kts 303°
2026-05-07 15:13 61.81892 -6.83950 9785 ft 332 kts 302°
2026-05-07 15:13 61.83257 -6.87738 9511 ft 320 kts 302°
2026-05-07 15:13 61.84595 -6.91467 9219 ft 310 kts 302°
2026-05-07 15:14 61.85867 -6.95018 8961 ft 301 kts 302°
2026-05-07 15:14 61.87127 -6.98533 8690 ft 292 kts 302°
2026-05-07 15:14 61.88332 -7.01908 8426 ft 284 kts 302°
2026-05-07 15:14 61.89514 -7.05229 8181 ft 277 kts 302°
2026-05-07 15:15 61.90665 -7.08460 7937 ft 270 kts 302°
2026-05-07 15:15 61.91780 -7.11594 7698 ft 264 kts 302°
2026-05-07 15:15 61.92865 -7.14654 7477 ft 257 kts 302°
2026-05-07 15:15 61.93944 -7.17691 7234 ft 252 kts 302°
2026-05-07 15:16 61.94973 -7.20590 7056 ft 242 kts 302°
2026-05-07 15:16 61.95960 -7.23378 6809 ft 232 kts 302°
2026-05-07 15:16 61.96925 -7.26112 6617 ft 232 kts 302°
2026-05-07 15:16 61.97893 -7.28868 6403 ft 233 kts 302°
2026-05-07 15:17 61.98862 -7.31621 6198 ft 233 kts 302°
2026-05-07 15:17 61.99828 -7.34372 5984 ft 232 kts 303°
2026-05-07 15:17 62.00694 -7.37240 5771 ft 226 kts 288°
2026-05-07 15:17 62.01187 -7.40388 5499 ft 225 kts 282°
2026-05-07 15:18 62.01637 -7.43489 5158 ft 218 kts 283°
2026-05-07 15:18 62.02087 -7.46515 4886 ft 209 kts 285°
2026-05-07 15:18 62.02668 -7.49284 4622 ft 202 kts 296°
2026-05-07 15:18 62.03460 -7.51659 4353 ft 193 kts 309°
2026-05-07 15:19 62.04422 -7.53573 4099 ft 187 kts 322°
2026-05-07 15:19 62.05505 -7.55031 3841 ft 184 kts 334°
2026-05-07 15:19 62.06641 -7.55887 3573 ft 161 kts 354°
2026-05-07 15:19 62.07731 -7.55900 3403 ft 155 kts 14°
2026-05-07 15:20 62.08722 -7.55227 3107 ft 146 kts 34°
2026-05-07 15:20 62.09504 -7.54005 2882 ft 136 kts 52°
2026-05-07 15:20 62.10062 -7.52428 2687 ft 131 kts 68°
2026-05-07 15:20 62.10379 -7.50650 2459 ft 126 kts 83°
2026-05-07 15:21 62.10442 -7.48830 2294 ft 122 kts 97°
2026-05-07 15:21 62.10294 -7.47070 2092 ft 120 kts 109°
2026-05-07 15:21 62.09995 -7.45434 1919 ft 120 kts 113°
2026-05-07 15:21 62.09689 -7.43787 1669 ft 118 kts 112°
2026-05-07 15:22 62.09384 -7.42195 1523 ft 117 kts 112°
2026-05-07 15:22 62.09065 -7.40576 1344 ft 117 kts 112°
2026-05-07 15:22 62.08752 -7.38995 1169 ft 116 kts 113°
2026-05-07 15:22 62.08438 -7.37420 987 ft 115 kts 111°
2026-05-07 15:23 62.08124 -7.35832 811 ft 116 kts 111°
2026-05-07 15:23 62.07815 -7.34276 629 ft 115 kts 109°
2026-05-07 15:23 62.07561 -7.32689 600 ft 112 kts 104°
2026-05-07 15:23 62.07215 -7.31154 607 ft 119 kts 116°
2026-05-07 15:24 62.06829 -7.29604 407 ft 116 kts 116°
2026-05-07 15:24 62.06462 -7.28131 296 ft 102 kts 114°
2026-05-07 15:24 62.06190 -7.27032 281 ft 61 kts 118°
2026-05-07 15:24 62.06139 -7.26818 274 ft 7 kts 150°
2026-05-07 15:25 62.06168 -7.26964 278 ft 31 kts 302°
2026-05-07 15:25 62.06284 -7.27385 290 ft 32 kts 290°
2026-05-07 15:25 62.06384 -7.27810 297 ft 32 kts 297°
2026-05-07 15:25 62.06474 -7.28142 294 ft 16 kts 340°
2026-05-07 15:26 62.06575 -7.28089 292 ft 10 kts
2026-05-07 15:26 62.06657 -7.28101 292 ft 13 kts 347°
2026-05-07 15:26 62.06706 -7.28159 292 ft 8 kts 349°
2026-05-07 15:26 62.06730 -7.28133 292 ft 0 kts 68°